Location: Waco, TX
(31.5480°N, 97.1670°W)
Time: 01:04:52
(UTC-05:00)

ISS - Pass Details

Date: 13 August 2018
Orbit: 402 x 409 km, 51.6° (Epoch: 16 August)

Event Time Altitude Azimuth Distance (km) Brightness Sun altitude
Rises 13:19:23 0° 267° (W) 2,305 0.0 72.7°
Reaches altitude 10° 13:22:20 10° 297° (WNW) 1,449 -1.0 72.8°
Maximum altitude 13:23:58 13° 327° (NNW) 1,276 -1.3 72.8°
Drops below altitude 10° 13:25:36 10° 357° (N) 1,451 -1.1 72.9°
Sets 13:28:33 0° 27° (NNE) 2,313 -0.1 72.9°
